全球星 M067星 (GLOBALSTAR M067)

导读 | 星芒AI

GLOBALSTAR M067 是 Globalstar 卫星通信公司运营的一颗低轨移动通信卫星,属于第二代 Globalstar 卫星星座的一部分。该卫星主要用于提供语音和数据通信服务,支持手持终端和移动设备在偏远地区的通信需求。M067 卫星运行在近地轨道,设计寿命约为 15 年,采用先进的通信技术,以提高信号质量和系统可靠性。它是 Globalstar 扩展其全球卫星通信网络的重要组成部分。

基本信息
目录编号:
32263
目录名称:
GLOBALSTAR M067
国际标识:
2007-048A
轨道中心:
EARTH
卫星名称:
全球星 M067星
卫星全名:
全球星 M067星 (GLOBALSTAR M067)
卫星状态:
在轨 (已飞行6632 天)
发射日期:
2007-10-20 UTC
国别 :
(GLOB)
星等 :
--
轨道信息
数据来源 国际轨道数据 AOE轨道数据
星历时间 2025-12-15T09:16:50+0800
1天前
查看轨道信息
2025-12-13T08:00:00+0800
3天前
查看轨道信息
半长轴 7881.848km 7881.851km
偏心率 0.0001881 0.000151
轨道倾角 51.971° 51.971°
近地点辐角 38.533° 32.785°
升交点赤经 226.698° 232.707°
平近点角 103.537° 293.684°
近地点 1502.23km 1502.525km
远地点 1505.196km 1504.907km
周期 116.065分钟 116.065分钟
每日圈数 12.406827 12.406819
详细信息
固有亮度:
5
最大亮度:
7.9
平衡模式:
三轴稳定
覆盖范围:
全球
运营商:
全球星公司
运营商所在国:
美国
使用方式:
暂无
卫星简介
全球星星座由48颗卫星加8颗备份星组成。这些卫星分布在8个倾角为52度的圆形轨道平面上,每个轨道平面6颗卫星,另有1 颗备用星。轨道高度约为1414km,传输时延和处理时延小于300ms,整个系统的覆盖区为南北纬70度以内的地区。该卫星已退役。
2D轨道图
3D轨道图
轨道高度分析图
轨道倾角分析图
轨道综合分析图
查看轨道综合分析图